This is the latest recevied weather packets stored in our database for station/object YT1XN-8. If no packets are shown the sender has not sent any weather packets the latest 10 day(s).
| Time | Temp. | Humidity | Pressure | Rain* | Wind** | Luminosity | Snow |
|---|---|---|---|---|---|---|---|
| 1777302941 | 20.56° C | 44% | 1019.5 hPa | 0 mm | - | - | - |
| 1777302644 | 20.56° C | 44% | 1019.5 hPa | 0 mm | - | - | - |
| 1777302281 | 21.11° C | 46% | 1019.6 hPa | 0 mm | - | - | - |
| 1777301621 | 21.11° C | 45% | 1019.6 hPa | 0 mm | - | - | - |
| 1777300961 | 21.67° C | 43% | 1019.5 hPa | 0 mm | - | - | - |
| 1777300301 | 22.22° C | 44% | 1019.6 hPa | 0 mm | - | - | - |
| 1777300245 | 22.22° C | 42% | 1019.7 hPa | 0 mm | - | - | - |
| 1777299641 | 22.22° C | 42% | 1019.7 hPa | 0 mm | - | - | - |
| 1777298981 | 21.67° C | 46% | 1019.8 hPa | 0 mm | - | - | - |
| 1777298321 | 21.67° C | 43% | 1019.9 hPa | 0 mm | - | - | - |
| 1777297844 | 21.67° C | 46% | 1019.9 hPa | 0 mm | - | - | - |
| 1777297661 | 21.67° C | 43% | 1019.9 hPa | 0 mm | - | - | - |
| 1777297001 | 21.67° C | 43% | 1020.1 hPa | 0 mm | - | - | - |
| 1777296341 | 21.11° C | 45% | 1020.3 hPa | 0 mm | - | - | - |
| 1777295681 | 21.11° C | 44% | 1020.5 hPa | 0 mm | - | - | - |
| 1777295021 | 21.11° C | 45% | 1020.7 hPa | 0 mm | - | - | - |
| 1777294361 | 21.11° C | 42% | 1020.8 hPa | 0 mm | - | - | - |
| 1777293701 | 21.11° C | 41% | 1021 hPa | 0 mm | - | - | - |
| 1777293644 | 21.11° C | 41% | 1021 hPa | 0 mm | - | - | - |
| 1777293041 | 21.11° C | 42% | 1021.2 hPa | 0 mm | - | - | - |
| 1777292381 | 21.11° C | 40% | 1021.4 hPa | 0 mm | - | - | - |
| 1777291721 | 20.56° C | 44% | 1021.4 hPa | 0 mm | - | - | - |
| 1777291061 | 20° C | 45% | 1021.6 hPa | 0 mm | - | - | - |
| 1777290401 | 20° C | 43% | 1021.7 hPa | 0 mm | - | - | - |
| 1777289741 | 20° C | 41% | 1021.7 hPa | 0 mm | - | - | - |
* Rain latest hour (hover to see other rain measurements)
** Current wind speed in m/s (hover to see current wind gust speed)